When you browse on this site, cookies collect data to enhance your experience and personalize the content and advertising you see.
Visit our Privacy Policy to learn more. By continuing to use the site, you agree to this use of cookies and data.
  • In Lithuania
  • List of Countries
  • For 7 days
  • Water Temperature
  • Weather Map
  • Weather Widgets
  • user-avatar
    Login

    Hourly Weather Saurimo

    Today, 17 October, Thursday

    Time Temperature Precipitation Wind Pressure Humidity
    00:00 +21°C° 0 mm 1 mps 670 mmHg 94%
    01:00 +21°C° 0 mm 1 mps 670 mmHg 92%
    02:00 +20°C° 0.1 mm 1 mps 670 mmHg 93%
    03:00 +20°C° 0.1 mm 1 mps 669 mmHg 94%
    04:00 +17°C° 0.1 mm 0 mps 669 mmHg 95%
    05:00 +19°C° 0 mm 0 mps 670 mmHg 92%
    06:00 +20°C° 0 mm 0 mps 670 mmHg 88%
    07:00 +21°C° 0 mm 0 mps 671 mmHg 83%
    08:00 +25°C° 0 mm 1 mps 672 mmHg 75%
    09:00 +27°C° 0 mm 1 mps 672 mmHg 67%
    10:00 +29°C° 0 mm 2 mps 672 mmHg 59%
    11:00 +29°C° 0 mm 2 mps 671 mmHg 55%
    12:00 +30°C° 0 mm 2 mps 671 mmHg 52%
    13:00 +30°C° 0 mm 2 mps 671 mmHg 50%
    14:00 +29°C° 0.5 mm 2 mps 670 mmHg 58%
    15:00 +28°C° 0.5 mm 1 mps 669 mmHg 66%
    16:00 +26°C° 0.5 mm 1 mps 669 mmHg 74%
    17:00 +25°C° 0.2 mm 1 mps 669 mmHg 78%
    18:00 +24°C° 0.2 mm 1 mps 669 mmHg 82%
    19:00 +22°C° 0.2 mm 1 mps 670 mmHg 86%
    20:00 +22°C° 0 mm 1 mps 670 mmHg 87%
    21:00 +22°C° 0 mm 1 mps 670 mmHg 89%
    22:00 +21°C° 0 mm 1 mps 670 mmHg 90%
    23:00 +21°C° 0 mm 1 mps 670 mmHg 91%

    Tomorrow, 18 October, Friday

    Time Temperature Precipitation Wind Pressure Humidity
    00:00 +21°C° 0 mm 1 mps 669 mmHg 92%
    01:00 +21°C° 0 mm 1 mps 669 mmHg 92%
    02:00 +20°C° 0 mm 1 mps 669 mmHg 93%
    03:00 +18°C° 0 mm 0 mps 669 mmHg 93%
    04:00 +18°C° 0 mm 0 mps 668 mmHg 94%
    05:00 +19°C° 0 mm 0 mps 669 mmHg 90%
    06:00 +20°C° 0 mm 0 mps 670 mmHg 86%
    07:00 +24°C° 0 mm 1 mps 671 mmHg 82%
    08:00 +24°C° 0.5 mm 0 mps 671 mmHg 75%
    09:00 +26°C° 0.5 mm 0 mps 671 mmHg 68%
    10:00 +29°C° 0.5 mm 0 mps 672 mmHg 60%
    11:00 +31°C° 0.1 mm 1 mps 671 mmHg 55%
    12:00 +32°C° 0.1 mm 1 mps 670 mmHg 49%
    13:00 +32°C° 0.1 mm 1 mps 670 mmHg 43%
    14:00 +32°C° 0 mm 1 mps 669 mmHg 46%
    15:00 +31°C° 0 mm 1 mps 668 mmHg 49%
    16:00 +30°C° 0 mm 1 mps 668 mmHg 52%
    17:00 +28°C° 0 mm 1 mps 668 mmHg 55%
    18:00 +26°C° 0 mm 1 mps 668 mmHg 59%
    19:00 +24°C° 0 mm 1 mps 668 mmHg 63%
    20:00 +24°C° 0 mm 1 mps 669 mmHg 67%
    21:00 +23°C° 0 mm 2 mps 669 mmHg 71%
    22:00 +23°C° 0 mm 2 mps 669 mmHg 76%
    23:00 +21°C° 0 mm 2 mps 669 mmHg 81%

    Day after tomorrow, 19 October, Saturday

    Time Temperature Precipitation Wind Pressure Humidity
    00:00 +20°C° 0 mm 2 mps 668 mmHg 86%
    01:00 +20°C° 0 mm 1 mps 668 mmHg 92%
    02:00 +20°C° 0 mm 1 mps 668 mmHg 93%
    03:00 +20°C° 0 mm 1 mps 668 mmHg 94%
    04:00 +19°C° 0 mm 1 mps 668 mmHg 95%
    05:00 +21°C° 0 mm 1 mps 669 mmHg 90%
    06:00 +22°C° 0 mm 1 mps 670 mmHg 85%
    07:00 +23°C° 0 mm 1 mps 671 mmHg 80%
    08:00 +25°C° 0 mm 1 mps 671 mmHg 73%
    09:00 +27°C° 0 mm 1 mps 671 mmHg 67%
    10:00 +29°C° 0 mm 2 mps 671 mmHg 61%
    11:00 +29°C° 0.1 mm 1 mps 671 mmHg 59%
    12:00 +30°C° 0.1 mm 1 mps 670 mmHg 58%
    13:00 +29°C° 0.1 mm 0 mps 669 mmHg 57%
    14:00 +30°C° 0.3 mm 1 mps 669 mmHg 58%
    15:00 +29°C° 0.3 mm 1 mps 668 mmHg 60%
    16:00 +28°C° 0.3 mm 1 mps 668 mmHg 62%
    17:00 +27°C° 0.1 mm 2 mps 668 mmHg 70%
    18:00 +25°C° 0.1 mm 2 mps 668 mmHg 79%
    19:00 +23°C° 0.1 mm 2 mps 669 mmHg 87%
    20:00 +21°C° 0 mm 2 mps 669 mmHg 89%
    21:00 +21°C° 0 mm 2 mps 669 mmHg 90%
    22:00 +21°C° 0 mm 1 mps 669 mmHg 91%
    23:00 +21°C° 0 mm 1 mps 669 mmHg 92%

    20 October, Sunday

    Time Temperature Precipitation Wind Pressure Humidity
    00:00 +20°C° 0 mm 1 mps 669 mmHg 93%
    01:00 +20°C° 0 mm 1 mps 668 mmHg 95%
    02:00 +20°C° 0 mm 1 mps 668 mmHg 96%
    03:00 +19°C° 0 mm 1 mps 668 mmHg 97%
    04:00 +19°C° 0 mm 1 mps 668 mmHg 97%
    05:00 +20°C° 0 mm 1 mps 669 mmHg 92%
    06:00 +22°C° 0 mm 1 mps 670 mmHg 86%
    07:00 +23°C° 0 mm 1 mps 671 mmHg 81%
    08:00 +26°C° 0 mm 1 mps 671 mmHg 72%
    09:00 +28°C° 0 mm 1 mps 671 mmHg 63%
    10:00 +30°C° 0 mm 1 mps 672 mmHg 54%
    11:00 +32°C° 0 mm 1 mps 671 mmHg 50%
    12:00 +32°C° 0 mm 0 mps 671 mmHg 46%
    13:00 +33°C° 0 mm 0 mps 670 mmHg 42%
    14:00 +34°C° 0 mm 1 mps 670 mmHg 45%
    15:00 +32°C° 0 mm 1 mps 669 mmHg 48%
    16:00 +31°C° 0 mm 1 mps 668 mmHg 51%
    17:00 +28°C° 0.7 mm 2 mps 668 mmHg 60%
    18:00 +24°C° 0.7 mm 2 mps 668 mmHg 69%
    19:00 +20°C° 0.7 mm 3 mps 668 mmHg 78%
    20:00 +20°C° 0 mm 2 mps 669 mmHg 81%
    21:00 +20°C° 0 mm 2 mps 669 mmHg 83%
    22:00 +20°C° 0 mm 2 mps 669 mmHg 85%
    23:00 +20°C° 0 mm 1 mps 669 mmHg 88%

    21 October, Monday

    Time Temperature Precipitation Wind Pressure Humidity
    00:00 +20°C° 0 mm 1 mps 668 mmHg 91%
    01:00 +20°C° 0 mm 1 mps 668 mmHg 95%
    02:00 +20°C° 0 mm 1 mps 668 mmHg 95%
    03:00 +20°C° 0 mm 1 mps 668 mmHg 96%
    04:00 +20°C° 0 mm 1 mps 668 mmHg 97%
    05:00 +21°C° 0 mm 1 mps 669 mmHg 93%
    06:00 +22°C° 0 mm 1 mps 669 mmHg 89%
    07:00 +23°C° 0 mm 1 mps 670 mmHg 85%
    08:00 +25°C° 0 mm 1 mps 670 mmHg 75%
    09:00 +27°C° 0 mm 2 mps 671 mmHg 65%
    10:00 +30°C° 0 mm 2 mps 671 mmHg 55%
    11:00 +31°C° 0 mm 1 mps 671 mmHg 51%
    12:00 +32°C° 0 mm 1 mps 670 mmHg 48%
    13:00 +34°C° 0 mm 1 mps 669 mmHg 45%
    14:00 +32°C° 0.3 mm 1 mps 669 mmHg 52%
    15:00 +30°C° 0.3 mm 2 mps 668 mmHg 59%
    16:00 +28°C° 0.3 mm 2 mps 667 mmHg 67%
    17:00 +26°C° 0.2 mm 2 mps 667 mmHg 73%
    18:00 +25°C° 0.2 mm 1 mps 668 mmHg 80%
    19:00 +23°C° 0.2 mm 1 mps 668 mmHg 87%
    20:00 +23°C° 0 mm 1 mps 668 mmHg 88%
    21:00 +22°C° 0 mm 1 mps 669 mmHg 89%
    22:00 +22°C° 0 mm 1 mps 669 mmHg 91%
    23:00 +22°C° 0.1 mm 1 mps 669 mmHg 92%

    22 October, Tuesday

    Time Temperature Precipitation Wind Pressure Humidity
    00:00 +21°C° 0.1 mm 1 mps 668 mmHg 93%
    01:00 +21°C° 0.1 mm 1 mps 668 mmHg 95%
    02:00 +21°C° 0.1 mm 1 mps 668 mmHg 95%
    03:00 +20°C° 0.1 mm 1 mps 668 mmHg 95%
    04:00 +20°C° 0.1 mm 1 mps 668 mmHg 95%
    05:00 +20°C° 0 mm 2 mps 668 mmHg 92%
    06:00 +21°C° 0 mm 2 mps 669 mmHg 89%
    07:00 +23°C° 0 mm 2 mps 669 mmHg 87%
    08:00 +25°C° 0 mm 3 mps 670 mmHg 79%
    09:00 +27°C° 0 mm 3 mps 670 mmHg 71%
    10:00 +28°C° 0 mm 4 mps 670 mmHg 63%
    11:00 +29°C° 0.9 mm 3 mps 670 mmHg 64%
    12:00 +29°C° 0.9 mm 3 mps 669 mmHg 65%
    13:00 +29°C° 0.9 mm 2 mps 668 mmHg 66%
    14:00 +27°C° 1.9 mm 2 mps 668 mmHg 73%
    15:00 +25°C° 1.9 mm 2 mps 667 mmHg 80%
    16:00 +22°C° 1.9 mm 3 mps 666 mmHg 87%
    17:00 +23°C° 0 mm 2 mps 666 mmHg 87%
    18:00 +21°C° 0 mm 2 mps 667 mmHg 88%
    19:00 +22°C° 0 mm 1 mps 667 mmHg 88%
    20:00 +22°C° 0 mm 1 mps 668 mmHg 88%
    21:00 +22°C° 0 mm 1 mps 668 mmHg 88%
    22:00 +20°C° 0 mm 0 mps 669 mmHg 87%
    23:00 +22°C° 0 mm 1 mps 668 mmHg 87%
    Show more